Location: Chervonnoye
(48.6000°N, 34.4000°E)
Time: 15:43:57
(UTC+00:00)

CZ-4 R/B - Pass Details

Date: 23 November 2020
Orbit: 532 x 598 km, 97.7° (Epoch: 28 January)

Event Time Altitude Azimuth Distance (km) Brightness Sun altitude
Exits shadow 17:36:59 12° 267° (W) 1,681 4.5 -36.3°
Maximum altitude 17:37:19 12° 272° (W) 1,677 4.5 -36.3°
Drops below altitude 10° 17:39:02 10° 298° (WNW) 1,840 4.7 -36.6°
Sets 17:42:24 0° 328° (NNW) 2,760 5.4 -37.1°
